Regional Weather Roundup
Issued by NWS

Home | Current Version | Previous Version | Text Only | Print | Product List | Glossary Off
Versions: 1 2 3 4 5 6 7 8 9 10 11 12 13 14 15 16 17 18 19 20 21 22 23 24 25 26 27 28 29 30 31 32 33 34 35 36 37 38 39 40 41 42 43 44 45 46 47 48 49 50

000
ASUS43 KDMX 222207
RWRIA

WEATHER ROUNDUP FOR IOWA
NATIONAL WEATHER SERVICE DES MOINES IA
500 PM CDT FRI AUG 22 2014

NOTE: "FAIR" INDICATES FEW OR NO CLOUDS BELOW 12,000 FEET WITH NO
SIGNIFICANT WEATHER AND/OR OBSTRUCTIONS TO VISIBILITY.

* - THESE STATIONS ARE NOT NWS STATIONS...THUS NOT UNDER NWS
QUALITY CONTROL.  THEY ALSO DO NOT REPORT WEATHER SUCH
AS PRECIPITATION OR FOG.

IAZ001>003-012>014-020>022-031>034-043>046-222300-
   NORTHWEST IOWA

CITY           SKY/WX    TMP DP  RH WIND       PRES   REMARKS
CARROLL *      MOSUNNY   84  79  84 SE6       29.92F HX  96
CHEROKEE *     PTSUNNY   82  77  83 NE8       29.95S HX  91
DENISON *      PTSUNNY   84  79  84 NE9       29.91S HX  96
LE MARS *      MOSUNNY   84  75  74 NE8       29.95S HX  92
ORANGE CITY *  MOSUNNY   84  70  61 E6        29.97S HX  88
SHELDON *      MOSUNNY   81  73  78 VRB6      29.97S HX  85
SIOUX CITY     MOSUNNY   89  75  63 NE10      29.92S HX  99
SPENCER        PTSUNNY   83  72  69 VRB5      29.98R HX  88
STORM LAKE *   MOSUNNY   82  79  89 NE10      29.96S HX  93
$$

IAZ055>058-069>071-079>083-090>094-222300-
   SOUTHWEST IOWA

CITY           SKY/WX    TMP DP  RH WIND       PRES   REMARKS
ATLANTIC *     MOSUNNY   84  77  79 S14G20    29.91F HX  94
AUDUBON *      SUNNY     86  81  84 E6        29.94S HX 102
CLARINDA *     SUNNY     81  73  78 E3        29.95F HX  85
COUNCIL BLFS * MOSUNNY   81  79  94 S15G22    29.91S HX  89
CRESTON *      PTSUNNY   81  75  83 SW10G21   29.96F HX  86
HARLAN  *      MOSUNNY   84  79  84 SE5       29.95F HX  96
LAMONI         PTSUNNY   84  75  74 SW8       29.96R HX  92
RED OAK *      MOSUNNY   82  73  74 S10G17    29.93S HX  88
SHENANDOAH *   SUNNY     81  73  78 SE7       29.94F HX  85
$$

IAZ047>049-059>061-072>074-084-222300-
   CENTRAL IOWA

CITY           SKY/WX    TMP DP  RH WIND       PRES   REMARKS
AMES           PTSUNNY   84  77  79 S7        29.91F HX  94
ANKENY *       MOSUNNY   86  77  74 CALM      29.90F HX  97
CHARITON *     SUNNY     88  79  74 SW6       29.94R HX 102
DES MOINES     PTSUNNY   88  77  69 S7        29.90F HX 100
GRINNELL*      PTSUNNY   84  75  74 CALM      29.93F HX  92
KNOXVILLE *    PTSUNNY   88  77  70 CALM      29.91S HX 100
MARSHALLTOWN   PTSUNNY   87  75  67 S3        29.91F HX  96
PELLA *        PTSUNNY   90  79  70 CALM      29.92S HX 105
PERRY *          N/A     86  75  70 E5        29.91F HX  95
$$

IAZ004>006-015-016-023>025-035-036-222300-
   NORTH CENTRAL IOWA

CITY           SKY/WX    TMP DP  RH WIND       PRES   REMARKS
ALGONA *       MOSUNNY   84  75  74 NE7       29.95F HX  92
CLARION *      SUNNY     86  77  74 NE6       29.93F HX  97
ESTHERVILLE    SUNNY     83  72  69 E5        29.96F HX  88
FORT DODGE *   MOSUNNY   84  72  65 NE8       29.93F HX  89
MASON CITY     MOSUNNY   87  72  60 NE5       29.96S HX  93
FOREST CITY *  MOSUNNY   84  72  65 CALM      29.95F HX  89
IOWA FALLS *     N/A     82  77  83 NE10      29.94S HAZE    HX  91
$$

IAZ007>011-017>019-026>030-037>042-050>054-066-222300-
   NORTHEAST IOWA

CITY           SKY/WX    TMP DP  RH WIND       PRES   REMARKS
CEDAR RAPIDS   CLOUDY    83  76  79 S6        29.91F HX  91
CHARLES CITY * PTSUNNY   84  75  74 CALM      29.95S HX  92
CLINTON *      MOSUNNY   84  75  74 SW7       29.95F HX  92
DECORAH *      MOSUNNY   84  77  79 CALM      29.94S HX  94
DUBUQUE        MOSUNNY   85  77  77 SW5       29.94S HX  95
MONTICELLO *   MOSUNNY   86  77  74 SW7       29.91F HX  97
OELWEIN *      PTSUNNY   84  77  79 SW5       29.93S HX  94
WATERLOO       PTSUNNY   82  70  66 N10G20    29.92R THUNDER HX  86
$$

IAZ064-065-067-068-078-222300-
   EAST CENTRAL IOWA

CITY           SKY/WX    TMP DP  RH WIND       PRES   REMARKS
DAVENPORT      MOSUNNY   85  74  69 W6        29.93S HX  92
IOWA CITY      CLOUDY    83  76  79 S3        29.92F HX  91
MT. PLEASANT * PTSUNNY   88  73  62 S6        29.92S HX  96
MUSCATINE *    MOSUNNY   86  77  74 CALM      29.91F HX  97
QUAD CITIES    SUNNY     88  73  61 S6        29.91F HX  95
$$

IAZ062-063-075>077-085>089-095>099-222300-
   SOUTHEAST IOWA

CITY           SKY/WX    TMP DP  RH WIND       PRES   REMARKS
BURLINGTON     MOSUNNY   86  78  77 S7        29.92S HX  98
FAIRFIELD *    MOSUNNY   86  77  74 CALM      29.93R HX  97
FORT MADISON * MOSUNNY   88  79  74 S6        29.93S HX 102
KEOKUK *       MOSUNNY   86  77  74 S7        29.91F HX  97
OSKALOOSA *      N/A     86  79  79 S6        29.92S HX  99
CENTERVILLE *  SUNNY     86  81  84 S6        29.96R HX 102
OTTUMWA        PTSUNNY   85  77  77 S8        29.91R HX  95
WASHINGTON *   MOSUNNY   88  77  70 CALM      29.92S HX 100
$$

ABBREVIATIONS USED IN REMARKS
   TC - TEMPERATURES IN CELSIUS
  WCI - WIND CHILL INDEX
   HX - HEAT INDEX
  VSB - VISIBILITY
$$




USA.gov is the U.S. government's official web portal to all federal, state and local government web resources and services.